Location: Eppenbrunn
(49.1158°N, 7.5601°E)
Time: 10:27:17
(UTC+00:00)

STARLINK-1219 - Pass Details

Date: 09 April 2020
Orbit: 548 x 550 km, 53.0° (Epoch: 26 May)

Event Time Altitude Azimuth Distance (km) Brightness Sun altitude
Rises 19:55:50 0° 291° (WNW) 2,720 8.8 -16.1°
Reaches altitude 10° 19:58:20 10° 279° (W) 1,823 7.3 -16.5°
Maximum altitude 20:01:46 26° 223° (SW) 1,109 5.2 -16.9°
Enters shadow 20:03:41 18° 183° (S) 1,366 5.3 -17.2°
